This is the latest recevied weather packets stored in our database for station/object DJ5CM-10. If no packets are shown the sender has not sent any weather packets the latest 10 day(s).
| Time | Temp. | Humidity | Pressure | Rain* | Wind** | Luminosity | Snow |
|---|---|---|---|---|---|---|---|
| 1778162890 | 31.67° C | 36% | 1016.5 hPa | - | - | - | - |
| 1778161990 | 28.89° C | 42% | 1016.5 hPa | - | - | - | - |
| 1778161090 | 25.56° C | 48% | 1016.5 hPa | - | - | - | - |
| 1778160190 | 22.22° C | 50% | 1016.4 hPa | - | - | - | - |
| 1778159290 | 21.67° C | 54% | 1016.3 hPa | - | - | - | - |
| 1778158390 | 16.67° C | 57% | 1016.2 hPa | - | - | - | - |
| 1778157490 | 16.67° C | 58% | 1016.1 hPa | - | - | - | - |
| 1778156590 | 16.11° C | 59% | 1016.1 hPa | - | - | - | - |
| 1778155690 | 15.56° C | 60% | 1016.1 hPa | - | - | - | - |
| 1778154790 | 15.56° C | 62% | 1016 hPa | - | - | - | - |
| 1778153889 | 15° C | 63% | 1016 hPa | - | - | - | - |
| 1778152989 | 15° C | 65% | 1016 hPa | - | - | - | - |
| 1778152089 | 14.44° C | 67% | 1016 hPa | - | - | - | - |
| 1778151189 | 14.44° C | 68% | 1016 hPa | - | - | - | - |
| 1778150289 | 13.89° C | 69% | 1015.9 hPa | - | - | - | - |
| 1778149389 | 13.89° C | 70% | 1015.8 hPa | - | - | - | - |
| 1778148489 | 13.33° C | 72% | 1015.8 hPa | - | - | - | - |
| 1778147589 | 13.33° C | 73% | 1015.7 hPa | - | - | - | - |
| 1778146689 | 12.78° C | 74% | 1015.7 hPa | - | - | - | - |
| 1778145789 | 12.22° C | 75% | 1015.6 hPa | - | - | - | - |
| 1778144888 | 12.22° C | 75% | 1015.5 hPa | - | - | - | - |
| 1778143988 | 11.67° C | 76% | 1015.2 hPa | - | - | - | - |
| 1778143088 | 11.67° C | 77% | 1015.3 hPa | - | - | - | - |
| 1778142188 | 11.11° C | 77% | 1015.2 hPa | - | - | - | - |
| 1778141288 | 10.56° C | 77% | 1015.1 hPa | - | - | - | - |
* Rain since midnight (hover to see other rain measurements)
** Current wind speed in m/s (hover to see current wind gust speed)